Pagina principale
METAR-TAF:

METAR-TAF

Aeroporti :

Aeroporto di Milano-Malpensa

Milano, Italia

latitudine: 45-37N, longitudine: 008-44E, altezza: 234 m

Osservazione

Il bollettino è stato emesso 46 minuti fa, alle 15:20 UTC
Vento 6 kt da ovest/sud-ovest, variando fra sud/sud-ovest e nord-ovest
Temperature 23°C
Umidità 44%
Pressione 1014 hPa
Visibilità 10 km o più
Poco nuvoloso ad un'altezza di 4000 ft

METAR: LIMC 131520Z 25006KT 200V320 9999 FEW040 23/10 Q1014 NOSIG

Ora: 18:06 (16:06 UTC)

Previsione

Il bollettino è stato emesso 5 ore e 6 minuti fa, alle 11:00 UTC
Previsione valida dal 13 alle 12 UTC al 14 alle 18 UTC
Vento 5 kt da direzioni variabili
Visibilità 10 km o più
nessuna nube inferiore a 1500 m e nessun cumulonembo

TAF: LIMC 131100Z 1312/1418 VRB05KT CAVOK

Osservazioni e previsioni meteorologiche di più di 4000 aeroporti (messaggi METAR e TAF).

Le stazioni disponibili sono rappresentate dai dischi gialli e rossi sulla carta.

Puntare il mouse per vedere il nome della stazione.

Clicca sopra per visualizzare le osservazioni e previsioni meteorologiche.

Per cambiare la mappa : fare clic sui pulsanti verdi con una croce nera per ingrandire, il pulsante verde con un trattino per diminuire, o sulla freccia verde per le mappe adiacenti.


METAR-TAF: